Time,TemperatureF,DewpointF,PressureIn,WindDirection,WindDirectionDegrees,WindSpeedMPH,WindSpeedGustMPH,Humidity,HourlyPrecipIn,Conditions,Clouds,dailyrainin,SoftwareType,DateUTC
2013-10-07 00:02:00,57.0,9.9,30.10,SW,231,0.0,0.0,15,0.00,,,0.00,meteohub,2013-10-07 07:02:00,
2013-10-07 00:07:00,57.0,11.3,30.10,SW,233,0.0,0.0,16,0.00,,,0.00,meteohub,2013-10-07 07:07:00,
2013-10-07 00:12:00,57.0,9.9,30.10,SW,234,0.0,0.0,15,0.00,,,0.00,meteohub,2013-10-07 07:12:00,
2013-10-07 00:17:00,57.0,12.6,30.10,SW,233,0.0,0.0,17,0.00,,,0.00,meteohub,2013-10-07 07:17:00,
2013-10-07 00:22:00,57.2,11.5,30.10,SW,233,0.0,0.0,16,0.00,,,0.00,meteohub,2013-10-07 07:22:00,
2013-10-07 00:27:00,57.4,11.5,30.10,SW,233,0.0,0.0,16,0.00,,,0.00,meteohub,2013-10-07 07:27:00,
2013-10-07 00:32:00,57.4,11.5,30.10,SW,232,0.0,0.0,16,0.00,,,0.00,meteohub,2013-10-07 07:32:00,
2013-10-07 00:37:00,57.6,11.7,30.10,SW,233,0.0,0.0,16,0.00,,,0.00,meteohub,2013-10-07 07:37:00,
2013-10-07 00:42:00,57.7,11.8,30.10,SW,233,0.0,0.0,16,0.00,,,0.00,meteohub,2013-10-07 07:42:00,
2013-10-07 00:47:00,57.9,12.0,30.09,SW,233,0.0,0.0,16,0.00,,,0.00,meteohub,2013-10-07 07:47:00,
2013-10-07 00:52:00,57.9,12.0,30.09,SW,233,0.0,0.0,16,0.00,,,0.00,meteohub,2013-10-07 07:52:00,
2013-10-07 00:57:00,57.9,12.0,30.09,SW,232,0.0,0.0,16,0.00,,,0.00,meteohub,2013-10-07 07:57:00,
2013-10-07 01:02:00,58.3,12.2,30.09,SW,232,0.0,0.0,16,0.00,,,0.00,meteohub,2013-10-07 08:02:00,
2013-10-07 01:07:00,58.3,12.2,30.09,SW,233,0.0,0.0,16,0.00,,,0.00,meteohub,2013-10-07 08:07:00,
2013-10-07 01:12:00,58.5,12.4,30.09,SW,231,0.0,0.0,16,0.00,,,0.00,meteohub,2013-10-07 08:12:00,
2013-10-07 01:17:00,58.5,12.4,30.09,SW,231,0.0,0.0,16,0.00,,,0.00,meteohub,2013-10-07 08:17:00,
2013-10-07 01:22:00,58.5,12.4,30.09,SW,231,0.0,0.0,16,0.00,,,0.00,meteohub,2013-10-07 08:22:00,
2013-10-07 01:27:00,58.5,10.9,30.09,SW,233,0.0,0.0,15,0.00,,,0.00,meteohub,2013-10-07 08:27:00,
2013-10-07 01:32:00,58.6,12.6,30.09,SW,233,0.0,0.0,16,0.00,,,0.00,meteohub,2013-10-07 08:32:00,
2013-10-07 01:37:00,58.6,11.1,30.08,SW,231,0.0,0.0,15,0.00,,,0.00,meteohub,2013-10-07 08:37:00,
2013-10-07 01:42:00,58.8,12.7,30.08,SW,231,0.0,0.0,16,0.00,,,0.00,meteohub,2013-10-07 08:42:00,
2013-10-07 01:47:00,58.6,11.1,30.08,SW,231,0.0,0.0,15,0.00,,,0.00,meteohub,2013-10-07 08:47:00,
2013-10-07 01:52:00,58.6,11.1,30.08,SW,233,0.0,0.0,15,0.00,,,0.00,meteohub,2013-10-07 08:52:00,
2013-10-07 01:57:00,58.6,11.1,30.08,SW,233,0.0,0.0,15,0.00,,,0.00,meteohub,2013-10-07 08:57:00,
2013-10-07 02:02:00,58.5,10.9,30.08,SW,233,0.0,0.0,15,0.00,,,0.00,meteohub,2013-10-07 09:02:00,
2013-10-07 02:07:00,58.5,10.9,30.07,SW,233,0.0,0.0,15,0.00,,,0.00,meteohub,2013-10-07 09:07:00,
2013-10-07 02:12:00,58.5,12.4,30.07,SW,233,0.0,0.0,16,0.00,,,0.00,meteohub,2013-10-07 09:12:00,
2013-10-07 02:17:00,58.3,10.8,30.07,SW,234,0.0,0.0,15,0.00,,,0.00,meteohub,2013-10-07 09:17:00,
2013-10-07 02:22:00,58.3,12.2,30.07,SW,233,0.0,0.0,16,0.00,,,0.00,meteohub,2013-10-07 09:22:00,
2013-10-07 02:27:00,58.3,12.2,30.07,SW,235,0.0,0.0,16,0.00,,,0.00,meteohub,2013-10-07 09:27:00,
2013-10-07 02:32:00,58.3,10.8,30.06,SW,234,0.0,0.0,15,0.00,,,0.00,meteohub,2013-10-07 09:32:00,
2013-10-07 02:37:00,58.3,10.8,30.06,SW,233,0.0,0.0,15,0.00,,,0.00,meteohub,2013-10-07 09:37:00,
2013-10-07 02:42:00,58.1,12.2,30.06,SW,234,0.0,0.0,16,0.00,,,0.00,meteohub,2013-10-07 09:42:00,
2013-10-07 02:47:00,58.1,12.2,30.06,SW,234,0.0,0.0,16,0.00,,,0.00,meteohub,2013-10-07 09:47:00,
2013-10-07 02:52:00,58.1,12.2,30.06,SW,234,0.0,0.0,16,0.00,,,0.00,meteohub,2013-10-07 09:52:00,
2013-10-07 02:57:00,58.3,12.2,30.06,SW,233,0.0,0.0,16,0.00,,,0.00,meteohub,2013-10-07 09:57:00,
2013-10-07 03:02:00,58.3,10.8,30.06,SW,234,0.0,0.0,15,0.00,,,0.00,meteohub,2013-10-07 10:02:00,
2013-10-07 03:07:00,58.3,12.2,30.05,SW,234,0.0,0.0,16,0.00,,,0.00,meteohub,2013-10-07 10:07:00,
2013-10-07 03:12:00,58.5,10.9,30.05,SW,235,0.0,0.0,15,0.00,,,0.00,meteohub,2013-10-07 10:12:00,
2013-10-07 03:17:00,58.3,10.8,30.05,SW,233,0.0,0.0,15,0.00,,,0.00,meteohub,2013-10-07 10:17:00,
2013-10-07 03:22:00,58.3,10.8,30.05,SW,233,0.0,0.0,15,0.00,,,0.00,meteohub,2013-10-07 10:22:00,
2013-10-07 03:27:00,58.1,10.6,30.05,SW,232,0.0,0.0,15,0.00,,,0.00,meteohub,2013-10-07 10:27:00,
2013-10-07 03:32:00,58.3,10.8,30.05,SW,232,0.0,0.0,15,0.00,,,0.00,meteohub,2013-10-07 10:32:00,
2013-10-07 03:37:00,58.6,11.1,30.05,SW,233,0.0,0.0,15,0.00,,,0.00,meteohub,2013-10-07 10:37:00,
2013-10-07 03:42:00,58.6,11.1,30.05,SW,236,0.0,0.0,15,0.00,,,0.00,meteohub,2013-10-07 10:42:00,
2013-10-07 03:47:00,58.6,11.1,30.05,SW,233,0.0,0.0,15,0.00,,,0.00,meteohub,2013-10-07 10:47:00,
2013-10-07 03:52:00,58.6,11.1,30.04,SW,232,0.0,0.0,15,0.00,,,0.00,meteohub,2013-10-07 10:52:00,
2013-10-07 03:57:00,58.5,12.4,30.04,SW,233,0.0,0.0,16,0.00,,,0.00,meteohub,2013-10-07 10:57:00,
2013-10-07 04:02:00,58.5,10.9,30.04,SW,233,0.0,0.0,15,0.00,,,0.00,meteohub,2013-10-07 11:02:00,
2013-10-07 04:07:00,58.3,10.8,30.04,SW,236,0.0,0.0,15,0.00,,,0.00,meteohub,2013-10-07 11:07:00,
2013-10-07 04:12:00,57.9,10.6,30.04,SW,235,0.0,0.0,15,0.00,,,0.00,meteohub,2013-10-07 11:12:00,
2013-10-07 04:17:00,58.1,10.6,30.04,SW,235,0.0,0.0,15,0.00,,,0.00,meteohub,2013-10-07 11:17:00,
2013-10-07 04:22:00,58.5,10.9,30.04,SW,236,0.0,0.0,15,0.00,,,0.00,meteohub,2013-10-07 11:22:00,
2013-10-07 04:27:00,58.6,11.1,30.03,SW,236,0.0,0.0,15,0.00,,,0.00,meteohub,2013-10-07 11:27:00,
2013-10-07 04:32:00,58.6,11.1,30.04,SW,232,0.0,0.0,15,0.00,,,0.00,meteohub,2013-10-07 11:32:00,
2013-10-07 04:37:00,58.5,9.5,30.03,SW,236,0.0,0.0,14,0.00,,,0.00,meteohub,2013-10-07 11:37:00,
2013-10-07 04:42:00,58.3,10.8,30.03,WSW,255,0.0,0.0,15,0.00,,,0.00,meteohub,2013-10-07 11:42:00,
2013-10-07 04:47:00,58.1,10.6,30.03,WSW,256,0.0,0.0,15,0.00,,,0.00,meteohub,2013-10-07 11:47:00,
2013-10-07 04:52:00,57.9,10.6,30.03,WSW,253,0.0,0.0,15,0.00,,,0.00,meteohub,2013-10-07 11:52:00,
2013-10-07 04:57:00,57.7,11.8,30.03,West,278,0.0,0.0,16,0.00,,,0.00,meteohub,2013-10-07 11:57:00,
2013-10-07 05:02:00,57.6,11.7,30.03,West,278,0.0,0.0,16,0.00,,,0.00,meteohub,2013-10-07 12:02:00,
2013-10-07 05:07:00,57.6,11.7,30.03,SW,231,0.0,0.0,16,0.00,,,0.00,meteohub,2013-10-07 12:07:00,
2013-10-07 05:12:00,57.6,10.2,30.02,WSW,258,0.0,0.0,15,0.00,,,0.00,meteohub,2013-10-07 12:12:00,
2013-10-07 05:17:00,57.6,10.2,30.03,South,190,0.0,0.0,15,0.00,,,0.00,meteohub,2013-10-07 12:17:00,
2013-10-07 05:22:00,57.2,11.5,30.02,SSW,207,0.0,1.0,16,0.00,,,0.00,meteohub,2013-10-07 12:22:00,
2013-10-07 05:27:00,56.8,11.1,30.02,SW,221,0.0,1.0,16,0.00,,,0.00,meteohub,2013-10-07 12:27:00,
2013-10-07 05:32:00,56.7,12.4,30.02,SW,236,0.0,1.0,17,0.00,,,0.00,meteohub,2013-10-07 12:32:00,
2013-10-07 05:37:00,56.3,10.6,30.02,SW,235,0.0,0.0,16,0.00,,,0.00,meteohub,2013-10-07 12:37:00,
2013-10-07 05:42:00,56.5,10.8,30.03,SW,219,0.0,0.0,16,0.00,,,0.00,meteohub,2013-10-07 12:42:00,
2013-10-07 05:47:00,56.7,10.9,30.02,SSE,147,3.0,0.0,16,0.00,,,0.00,meteohub,2013-10-07 12:47:00,
2013-10-07 05:52:00,56.8,11.1,30.03,South,175,0.0,3.0,16,0.00,,,0.00,meteohub,2013-10-07 12:52:00,
2013-10-07 05:57:00,56.8,11.1,30.02,WSW,252,0.0,3.0,16,0.00,,,0.00,meteohub,2013-10-07 12:57:00,
2013-10-07 06:02:00,57.0,11.3,30.02,West,274,0.0,3.0,16,0.00,,,0.00,meteohub,2013-10-07 13:02:00,
2013-10-07 06:07:00,56.7,10.9,30.03,West,264,0.0,1.0,16,0.00,,,0.00,meteohub,2013-10-07 13:07:00,
2013-10-07 06:12:00,56.1,11.8,30.02,West,266,0.0,1.0,17,0.00,,,0.00,meteohub,2013-10-07 13:12:00,
2013-10-07 06:17:00,55.9,10.4,30.03,West,266,0.0,0.0,16,0.00,,,0.00,meteohub,2013-10-07 13:17:00,
2013-10-07 06:22:00,55.9,13.1,30.03,West,264,0.0,0.0,18,0.00,,,0.00,meteohub,2013-10-07 13:22:00,
2013-10-07 06:27:00,55.6,12.7,30.03,West,266,0.0,0.0,18,0.00,,,0.00,meteohub,2013-10-07 13:27:00,
2013-10-07 06:32:00,55.0,10.9,30.03,WSW,252,0.0,0.0,17,0.00,,,0.00,meteohub,2013-10-07 13:32:00,
2013-10-07 06:37:00,55.0,12.2,30.03,West,262,0.0,0.0,18,0.00,,,0.00,meteohub,2013-10-07 13:37:00,
2013-10-07 06:42:00,55.2,9.9,30.03,West,263,0.0,0.0,16,0.00,,,0.00,meteohub,2013-10-07 13:42:00,
2013-10-07 06:47:00,55.2,11.1,30.03,West,262,0.0,0.0,17,0.00,,,0.00,meteohub,2013-10-07 13:47:00,
2013-10-07 06:52:00,55.0,10.9,30.03,West,262,0.0,0.0,17,0.00,,,0.00,meteohub,2013-10-07 13:52:00,
2013-10-07 06:57:00,54.9,10.8,30.03,WSW,253,0.0,0.0,17,0.00,,,0.00,meteohub,2013-10-07 13:57:00,
2013-10-07 07:02:00,54.9,10.8,30.03,WSW,252,0.0,0.0,17,0.00,,,0.00,meteohub,2013-10-07 14:02:00,
2013-10-07 07:07:00,54.7,10.8,30.03,West,266,0.0,0.0,17,0.00,,,0.00,meteohub,2013-10-07 14:07:00,
2013-10-07 07:12:00,54.7,10.8,30.03,West,266,0.0,0.0,17,0.00,,,0.00,meteohub,2013-10-07 14:12:00,
2013-10-07 07:17:00,54.9,10.8,30.04,WNW,300,0.0,0.0,17,0.00,,,0.00,meteohub,2013-10-07 14:17:00,
2013-10-07 07:22:00,54.9,10.8,30.04,NW,308,0.0,0.0,17,0.00,,,0.00,meteohub,2013-10-07 14:22:00,
2013-10-07 07:27:00,55.0,12.2,30.04,SW,217,0.0,0.0,18,0.00,,,0.00,meteohub,2013-10-07 14:27:00,
2013-10-07 07:32:00,54.9,13.3,30.04,SE,128,0.0,0.0,19,0.00,,,0.00,meteohub,2013-10-07 14:32:00,
2013-10-07 07:37:00,54.9,13.3,30.04,SW,217,0.0,4.0,19,0.00,,,0.00,meteohub,2013-10-07 14:37:00,
2013-10-07 07:42:00,55.0,13.5,30.04,SW,217,1.0,4.0,19,0.00,,,0.00,meteohub,2013-10-07 14:42:00,
2013-10-07 07:47:00,55.2,13.6,30.04,SSW,194,0.0,4.0,19,0.00,,,0.00,meteohub,2013-10-07 14:47:00,
2013-10-07 07:52:00,55.8,14.2,30.04,SSW,193,0.0,2.0,19,0.00,,,0.00,meteohub,2013-10-07 14:52:00,
2013-10-07 07:57:00,56.1,14.4,30.04,NW,321,0.0,2.0,19,0.00,,,0.00,meteohub,2013-10-07 14:57:00,
2013-10-07 08:02:00,56.8,16.2,30.04,ENE,76,0.0,2.0,20,0.00,,,0.00,meteohub,2013-10-07 15:02:00,
2013-10-07 08:07:00,57.6,14.4,30.04,SW,235,1.0,2.0,18,0.00,,,0.00,meteohub,2013-10-07 15:07:00,
2013-10-07 08:12:00,57.7,15.8,30.04,SE,136,0.0,2.0,19,0.00,,,0.00,meteohub,2013-10-07 15:12:00,
2013-10-07 08:17:00,58.1,16.0,30.04,SE,132,0.0,2.0,19,0.00,,,0.00,meteohub,2013-10-07 15:17:00,
2013-10-07 08:22:00,58.5,16.3,30.04,SSE,159,0.0,2.0,19,0.00,,,0.00,meteohub,2013-10-07 15:22:00,
2013-10-07 08:27:00,59.0,14.2,30.04,SE,144,0.0,2.0,17,0.00,,,0.00,meteohub,2013-10-07 15:27:00,
2013-10-07 08:32:00,59.4,13.1,30.04,SE,134,1.0,3.0,16,0.00,,,0.00,meteohub,2013-10-07 15:32:00,
2013-10-07 08:37:00,59.7,13.5,30.04,NW,326,0.0,6.0,16,0.00,,,0.00,meteohub,2013-10-07 15:37:00,
2013-10-07 08:42:00,60.4,14.0,30.04,East,82,1.0,8.0,16,0.00,,,0.00,meteohub,2013-10-07 15:42:00,
2013-10-07 08:47:00,61.3,13.3,30.04,East,98,3.0,8.0,15,0.00,,,0.00,meteohub,2013-10-07 15:47:00,
2013-10-07 08:52:00,61.5,16.3,30.05,ESE,106,2.0,8.0,17,0.00,,,0.00,meteohub,2013-10-07 15:52:00,
2013-10-07 08:57:00,61.5,11.8,30.04,ESE,107,0.0,8.0,14,0.00,,,0.00,meteohub,2013-10-07 15:57:00,
2013-10-07 09:02:00,61.5,14.9,30.05,SE,129,1.0,8.0,16,0.00,,,0.00,meteohub,2013-10-07 16:02:00,
2013-10-07 09:07:00,61.5,14.9,30.04,WSW,254,1.0,8.0,16,0.00,,,0.00,meteohub,2013-10-07 16:07:00,
2013-10-07 09:12:00,61.5,14.9,30.04,SSW,198,0.0,4.0,16,0.00,,,0.00,meteohub,2013-10-07 16:12:00,
2013-10-07 09:17:00,61.3,14.7,30.04,WNW,288,1.0,4.0,16,0.00,,,0.00,meteohub,2013-10-07 16:17:00,
2013-10-07 09:22:00,61.2,13.1,30.04,SSW,194,0.0,7.0,15,0.00,,,0.00,meteohub,2013-10-07 16:22:00,
2013-10-07 09:27:00,61.2,13.1,30.04,SE,134,2.0,7.0,15,0.00,,,0.00,meteohub,2013-10-07 16:27:00,
2013-10-07 09:32:00,62.2,14.0,30.04,ESE,118,0.0,7.0,15,0.00,,,0.00,meteohub,2013-10-07 16:32:00,
2013-10-07 09:37:00,63.1,13.1,30.04,ESE,111,2.0,7.0,14,0.00,,,0.00,meteohub,2013-10-07 16:37:00,
2013-10-07 09:42:00,63.3,13.3,30.04,South,177,6.0,8.0,14,0.00,,,0.00,meteohub,2013-10-07 16:42:00,
2013-10-07 09:47:00,63.1,13.1,30.04,West,278,2.0,9.0,14,0.00,,,0.00,meteohub,2013-10-07 16:47:00,
2013-10-07 09:52:00,63.1,11.5,30.04,ESE,110,1.0,9.0,13,0.00,,,0.00,meteohub,2013-10-07 16:52:00,
2013-10-07 09:57:00,63.9,12.0,30.04,SE,127,1.0,8.0,13,0.00,,,0.00,meteohub,2013-10-07 16:57:00,
2013-10-07 10:02:00,64.0,12.2,30.04,SSE,153,2.0,6.0,13,0.00,,,0.00,meteohub,2013-10-07 17:02:00,
2013-10-07 10:07:00,64.0,8.4,30.04,SSW,205,2.0,8.0,11,0.00,,,0.00,meteohub,2013-10-07 17:07:00,
2013-10-07 10:12:00,64.0,10.4,30.04,ESE,117,6.0,8.0,12,0.00,,,0.00,meteohub,2013-10-07 17:12:00,
2013-10-07 10:17:00,64.0,10.4,30.04,SW,215,1.0,8.0,12,0.00,,,0.00,meteohub,2013-10-07 17:17:00,
2013-10-07 10:22:00,64.4,14.2,30.04,WNW,283,2.0,8.0,14,0.00,,,0.00,meteohub,2013-10-07 17:22:00,
2013-10-07 10:27:00,64.2,10.6,30.04,WNW,294,1.0,6.0,12,0.00,,,0.00,meteohub,2013-10-07 17:27:00,
2013-10-07 10:32:00,63.9,10.2,30.04,ENE,74,0.0,9.0,12,0.00,,,0.00,meteohub,2013-10-07 17:32:00,
2013-10-07 10:37:00,63.5,10.0,30.04,SE,142,2.0,9.0,12,0.00,,,0.00,meteohub,2013-10-07 17:37:00,
2013-10-07 10:42:00,63.7,8.2,30.03,East,92,1.0,8.0,11,0.00,,,0.00,meteohub,2013-10-07 17:42:00,
2013-10-07 10:47:00,64.4,10.6,30.03,SSE,160,4.0,10.0,12,0.00,,,0.00,meteohub,2013-10-07 17:47:00,
2013-10-07 10:52:00,64.6,10.8,30.03,East,101,2.0,10.0,12,0.00,,,0.00,meteohub,2013-10-07 17:52:00,
2013-10-07 10:57:00,64.2,14.0,30.03,SW,233,1.0,10.0,14,0.00,,,0.00,meteohub,2013-10-07 17:57:00,
2013-10-07 11:02:00,64.4,10.6,30.03,SW,233,2.0,6.0,12,0.00,,,0.00,meteohub,2013-10-07 18:02:00,
2013-10-07 11:07:00,64.0,12.2,30.03,South,190,3.0,9.0,13,0.00,,,0.00,meteohub,2013-10-07 18:07:00,
2013-10-07 11:12:00,64.8,12.7,30.02,West,271,2.0,9.0,13,0.00,,,0.00,meteohub,2013-10-07 18:12:00,
2013-10-07 11:17:00,64.9,11.1,30.02,ESE,108,2.0,9.0,12,0.00,,,0.00,meteohub,2013-10-07 18:17:00,
2013-10-07 11:22:00,65.5,13.3,30.02,ESE,102,0.0,8.0,13,0.00,,,0.00,meteohub,2013-10-07 18:22:00,
2013-10-07 11:27:00,65.8,13.6,30.02,NNW,333,1.0,7.0,13,0.00,,,0.00,meteohub,2013-10-07 18:27:00,
2013-10-07 11:32:00,66.4,14.0,30.02,East,82,0.0,6.0,13,0.00,,,0.00,meteohub,2013-10-07 18:32:00,
2013-10-07 11:37:00,67.3,14.7,30.02,West,276,1.0,6.0,13,0.00,,,0.00,meteohub,2013-10-07 18:37:00,
2013-10-07 11:42:00,66.7,14.4,30.02,ESE,120,1.0,5.0,13,0.00,,,0.00,meteohub,2013-10-07 18:42:00,
2013-10-07 11:47:00,67.1,14.5,30.02,ENE,74,3.0,5.0,13,0.00,,,0.00,meteohub,2013-10-07 18:47:00,
2013-10-07 11:52:00,67.6,13.3,30.02,ESE,107,0.0,5.0,12,0.00,,,0.00,meteohub,2013-10-07 18:52:00,
2013-10-07 11:57:00,67.8,13.3,30.01,East,85,4.0,5.0,12,0.00,,,0.00,meteohub,2013-10-07 18:57:00,
2013-10-07 12:02:00,68.2,11.7,30.01,WSW,248,4.0,6.0,11,0.00,,,0.00,meteohub,2013-10-07 19:02:00,
2013-10-07 12:07:00,67.6,13.3,30.01,North,356,1.0,6.0,12,0.00,,,0.00,meteohub,2013-10-07 19:07:00,
2013-10-07 12:12:00,67.3,10.9,30.01,SSW,199,2.0,9.0,11,0.00,,,0.00,meteohub,2013-10-07 19:12:00,
2013-10-07 12:17:00,66.6,10.4,30.01,SSW,194,2.0,9.0,11,0.00,,,0.00,meteohub,2013-10-07 19:17:00,
2013-10-07 12:22:00,66.7,12.6,30.00,North,354,0.0,10.0,12,0.00,,,0.00,meteohub,2013-10-07 19:22:00,
2013-10-07 12:27:00,66.7,12.6,30.00,SSW,210,5.0,10.0,12,0.00,,,0.00,meteohub,2013-10-07 19:27:00,
2013-10-07 12:32:00,66.9,10.8,30.00,South,185,1.0,10.0,11,0.00,,,0.00,meteohub,2013-10-07 19:32:00,
2013-10-07 12:37:00,67.3,12.9,30.00,SSE,150,2.0,8.0,12,0.00,,,0.00,meteohub,2013-10-07 19:37:00,
2013-10-07 12:42:00,67.5,11.1,29.99,East,94,6.0,8.0,11,0.00,,,0.00,meteohub,2013-10-07 19:42:00,
2013-10-07 12:47:00,67.5,13.1,29.99,WSW,239,3.0,9.0,12,0.00,,,0.00,meteohub,2013-10-07 19:47:00,
2013-10-07 12:57:00,67.3,10.9,29.99,South,187,5.0,11.0,11,0.00,,,0.00,meteohub,2013-10-07 19:57:00,
2013-10-07 13:07:00,68.0,13.5,29.97,SSW,205,2.0,11.0,12,0.00,,,0.00,meteohub,2013-10-07 20:07:00,
2013-10-07 13:12:00,68.5,13.8,29.97,East,101,4.0,7.0,12,0.00,,,0.00,meteohub,2013-10-07 20:12:00,
2013-10-07 13:17:00,68.4,13.8,29.97,ESE,106,3.0,10.0,12,0.00,,,0.00,meteohub,2013-10-07 20:17:00,
2013-10-07 13:22:00,68.2,13.6,29.97,East,89,4.0,10.0,12,0.00,,,0.00,meteohub,2013-10-07 20:22:00,
2013-10-07 13:27:00,67.8,15.1,29.97,NNE,12,2.0,10.0,13,0.00,,,0.00,meteohub,2013-10-07 20:27:00,
2013-10-07 13:32:00,68.4,13.8,29.97,SE,124,10.0,10.0,12,0.00,,,0.00,meteohub,2013-10-07 20:32:00,
2013-10-07 13:37:00,67.6,15.1,29.96,ESE,121,1.0,12.0,13,0.00,,,0.00,meteohub,2013-10-07 20:37:00,
2013-10-07 13:42:00,67.8,15.1,29.96,SSE,160,0.0,12.0,13,0.00,,,0.00,meteohub,2013-10-07 20:42:00,
2013-10-07 13:47:00,68.0,13.5,29.96,West,270,2.0,12.0,12,0.00,,,0.00,meteohub,2013-10-07 20:47:00,
2013-10-07 13:52:00,67.5,14.9,29.96,SE,138,1.0,8.0,13,0.00,,,0.00,meteohub,2013-10-07 20:52:00,
2013-10-07 13:57:00,67.6,13.3,29.96,SE,139,9.0,9.0,12,0.00,,,0.00,meteohub,2013-10-07 20:57:00,
2013-10-07 14:02:00,67.5,14.9,29.96,ESE,121,3.0,11.0,13,0.00,,,0.00,meteohub,2013-10-07 21:02:00,
2013-10-07 14:07:00,67.3,14.7,29.96,ESE,105,4.0,11.0,13,0.00,,,0.00,meteohub,2013-10-07 21:07:00,
2013-10-07 14:12:00,66.9,14.5,29.96,South,188,2.0,13.0,13,0.00,,,0.00,meteohub,2013-10-07 21:12:00,
2013-10-07 14:17:00,67.1,14.5,29.96,SE,141,5.0,13.0,13,0.00,,,0.00,meteohub,2013-10-07 21:17:00,
2013-10-07 14:22:00,67.1,16.3,29.96,SE,129,2.0,13.0,14,0.00,,,0.00,meteohub,2013-10-07 21:22:00,
2013-10-07 14:27:00,67.1,14.5,29.96,WSW,248,2.0,9.0,13,0.00,,,0.00,meteohub,2013-10-07 21:27:00,
2013-10-07 14:32:00,67.3,14.7,29.96,WNW,293,4.0,9.0,13,0.00,,,0.00,meteohub,2013-10-07 21:32:00,
2013-10-07 14:37:00,66.9,16.2,29.96,SE,131,1.0,12.0,14,0.00,,,0.00,meteohub,2013-10-07 21:37:00,
2013-10-07 14:42:00,67.1,16.3,29.95,SE,131,2.0,12.0,14,0.00,,,0.00,meteohub,2013-10-07 21:42:00,
2013-10-07 14:47:00,67.3,14.7,29.95,ESE,111,4.0,12.0,13,0.00,,,0.00,meteohub,2013-10-07 21:47:00,
2013-10-07 14:52:00,66.6,14.2,29.95,West,281,6.0,10.0,13,0.00,,,0.00,meteohub,2013-10-07 21:52:00,
2013-10-07 14:57:00,66.0,12.0,29.95,NNE,30,4.0,10.0,12,0.00,,,0.00,meteohub,2013-10-07 21:57:00,
2013-10-07 15:02:00,66.0,12.0,29.95,SE,132,3.0,12.0,12,0.00,,,0.00,meteohub,2013-10-07 22:02:00,
2013-10-07 15:12:00,65.8,11.8,29.95,East,98,7.0,12.0,12,0.00,,,0.00,meteohub,2013-10-07 22:12:00,
2013-10-07 15:17:00,65.8,11.8,29.95,SSE,165,4.0,11.0,12,0.00,,,0.00,meteohub,2013-10-07 22:17:00,
2013-10-07 15:22:00,66.2,12.0,29.95,NE,44,2.0,9.0,12,0.00,,,0.00,meteohub,2013-10-07 22:22:00,
2013-10-07 15:27:00,66.0,12.0,29.95,SSW,199,3.0,9.0,12,0.00,,,0.00,meteohub,2013-10-07 22:27:00,
2013-10-07 15:32:00,65.7,13.5,29.95,East,86,3.0,7.0,13,0.00,,,0.00,meteohub,2013-10-07 22:32:00,
2013-10-07 15:37:00,65.5,13.3,29.94,SE,124,5.0,12.0,13,0.00,,,0.00,meteohub,2013-10-07 22:37:00,
2013-10-07 15:42:00,65.1,13.1,29.94,NE,56,2.0,12.0,13,0.00,,,0.00,meteohub,2013-10-07 22:42:00,
2013-10-07 15:47:00,65.1,16.3,29.94,West,265,1.0,12.0,15,0.00,,,0.00,meteohub,2013-10-07 22:47:00,
2013-10-07 15:52:00,64.9,16.2,29.94,South,181,1.0,14.0,15,0.00,,,0.00,meteohub,2013-10-07 22:52:00,
2013-10-07 15:57:00,64.6,15.8,29.94,SE,129,2.0,14.0,15,0.00,,,0.00,meteohub,2013-10-07 22:57:00,
2013-10-07 16:02:00,64.0,15.4,29.94,SW,217,2.0,12.0,15,0.00,,,0.00,meteohub,2013-10-07 23:02:00,
2013-10-07 16:07:00,63.7,15.1,29.94,ENE,66,1.0,10.0,15,0.00,,,0.00,meteohub,2013-10-07 23:07:00,
2013-10-07 16:12:00,63.5,15.1,29.94,West,281,1.0,10.0,15,0.00,,,0.00,meteohub,2013-10-07 23:12:00,
2013-10-07 16:17:00,63.3,16.3,29.94,ENE,63,3.0,10.0,16,0.00,,,0.00,meteohub,2013-10-07 23:17:00,
2013-10-07 16:22:00,63.1,16.2,29.94,ENE,75,3.0,10.0,16,0.00,,,0.00,meteohub,2013-10-07 23:22:00,
2013-10-07 16:27:00,63.0,16.0,29.94,SE,143,1.0,10.0,16,0.00,,,0.00,meteohub,2013-10-07 23:27:00,
2013-10-07 16:32:00,63.0,16.0,29.94,ESE,122,2.0,8.0,16,0.00,,,0.00,meteohub,2013-10-07 23:32:00,
2013-10-07 16:37:00,62.8,17.2,29.94,South,181,5.0,11.0,17,0.00,,,0.00,meteohub,2013-10-07 23:37:00,
2013-10-07 16:42:00,62.4,17.1,29.94,NE,54,3.0,11.0,17,0.00,,,0.00,meteohub,2013-10-07 23:42:00,
2013-10-07 16:47:00,62.2,18.1,29.94,ENE,69,5.0,9.0,18,0.00,,,0.00,meteohub,2013-10-07 23:47:00,
2013-10-07 16:52:00,62.1,19.2,29.94,SW,233,3.0,9.0,19,0.00,,,0.00,meteohub,2013-10-07 23:52:00,
2013-10-07 16:57:00,62.1,21.7,29.94,SE,132,2.0,8.0,21,0.00,,,0.00,meteohub,2013-10-07 23:57:00,
2013-10-07 17:02:00,61.9,21.6,29.94,SW,214,2.0,10.0,21,0.00,,,0.00,meteohub,2013-10-08 00:02:00,
2013-10-07 17:07:00,61.7,23.5,29.94,ESE,121,2.0,10.0,23,0.00,,,0.00,meteohub,2013-10-08 00:07:00,
2013-10-07 17:12:00,61.3,23.2,29.94,ESE,105,2.0,9.0,23,0.00,,,0.00,meteohub,2013-10-08 00:12:00,
2013-10-07 17:17:00,61.2,24.1,29.94,WSW,253,1.0,11.0,24,0.00,,,0.00,meteohub,2013-10-08 00:17:00,
2013-10-07 17:22:00,61.0,25.9,29.94,East,96,2.0,11.0,26,0.00,,,0.00,meteohub,2013-10-08 00:22:00,
2013-10-07 17:27:00,60.6,28.9,29.94,North,8,4.0,4.0,30,0.00,,,0.00,meteohub,2013-10-08 00:27:00,
2013-10-07 17:32:00,60.3,29.5,29.94,SSW,197,3.0,7.0,31,0.00,,,0.00,meteohub,2013-10-08 00:32:00,
2013-10-07 17:37:00,60.1,30.2,29.94,ESE,122,4.0,7.0,32,0.00,,,0.00,meteohub,2013-10-08 00:37:00,
2013-10-07 17:42:00,59.7,31.3,29.94,SW,224,2.0,7.0,34,0.00,,,0.00,meteohub,2013-10-08 00:42:00,
2013-10-07 17:47:00,59.5,31.8,29.94,SSE,158,1.0,9.0,35,0.00,,,0.00,meteohub,2013-10-08 00:47:00,
2013-10-07 17:52:00,59.2,30.7,29.94,WSW,256,2.0,9.0,34,0.00,,,0.00,meteohub,2013-10-08 00:52:00,
2013-10-07 17:57:00,58.8,30.6,29.94,SSW,207,4.0,7.0,34,0.00,,,0.00,meteohub,2013-10-08 00:57:00,
2013-10-07 18:02:00,58.6,30.4,29.94,SSE,162,1.0,10.0,34,0.00,,,0.00,meteohub,2013-10-08 01:02:00,
2013-10-07 18:07:00,58.5,31.6,29.93,SSW,197,0.0,10.0,36,0.00,,,0.00,meteohub,2013-10-08 01:07:00,
2013-10-07 18:12:00,58.3,32.2,29.93,SSE,167,4.0,8.0,37,0.00,,,0.00,meteohub,2013-10-08 01:12:00,
2013-10-07 18:17:00,57.9,33.1,29.93,SSE,155,3.0,7.0,39,0.00,,,0.00,meteohub,2013-10-08 01:17:00,
2013-10-07 18:22:00,57.7,33.6,29.93,WNW,300,0.0,6.0,40,0.00,,,0.00,meteohub,2013-10-08 01:22:00,
2013-10-07 18:27:00,57.4,33.3,29.93,SSE,153,1.0,6.0,40,0.00,,,0.00,meteohub,2013-10-08 01:27:00,
2013-10-07 18:32:00,57.0,33.6,29.92,SSE,155,1.0,7.0,41,0.00,,,0.00,meteohub,2013-10-08 01:32:00,
2013-10-07 18:37:00,56.8,34.0,29.92,SSE,152,2.0,7.0,42,0.00,,,0.00,meteohub,2013-10-08 01:37:00,
2013-10-07 18:42:00,56.7,33.8,29.92,SSW,204,1.0,8.0,42,0.00,,,0.00,meteohub,2013-10-08 01:42:00,
2013-10-07 18:47:00,56.5,34.9,29.92,ESE,116,3.0,8.0,44,0.00,,,0.00,meteohub,2013-10-08 01:47:00,
2013-10-07 18:52:00,56.1,35.6,29.92,SSW,197,0.0,8.0,46,0.00,,,0.00,meteohub,2013-10-08 01:52:00,
2013-10-07 18:57:00,55.8,36.3,29.93,ESE,111,0.0,9.0,48,0.00,,,0.00,meteohub,2013-10-08 01:57:00,
2013-10-07 19:02:00,55.6,36.1,29.93,SSE,154,8.0,9.0,48,0.00,,,0.00,meteohub,2013-10-08 02:02:00,
2013-10-07 19:07:00,55.6,37.2,29.93,East,89,2.0,10.0,50,0.00,,,0.00,meteohub,2013-10-08 02:07:00,
2013-10-07 19:12:00,55.2,37.4,29.93,South,174,4.0,10.0,51,0.00,,,0.00,meteohub,2013-10-08 02:12:00,
2013-10-07 19:17:00,55.2,37.9,29.94,SSE,148,2.0,10.0,52,0.00,,,0.00,meteohub,2013-10-08 02:17:00,
2013-10-07 19:22:00,55.0,37.8,29.94,SSE,161,2.0,10.0,52,0.00,,,0.00,meteohub,2013-10-08 02:22:00,
2013-10-07 19:27:00,54.9,37.6,29.93,SSE,148,1.0,10.0,52,0.00,,,0.00,meteohub,2013-10-08 02:27:00,
2013-10-07 19:32:00,54.5,37.2,29.94,SSE,160,0.0,8.0,52,0.00,,,0.00,meteohub,2013-10-08 02:32:00,
2013-10-07 19:37:00,54.1,36.9,29.94,SE,140,1.0,7.0,52,0.00,,,0.00,meteohub,2013-10-08 02:37:00,
2013-10-07 19:42:00,54.0,36.7,29.94,SE,136,0.0,6.0,52,0.00,,,0.00,meteohub,2013-10-08 02:42:00,
2013-10-07 19:47:00,53.4,36.3,29.94,ESE,121,1.0,4.0,52,0.00,,,0.00,meteohub,2013-10-08 02:47:00,
2013-10-07 19:52:00,53.2,36.1,29.93,SE,127,2.0,4.0,52,0.00,,,0.00,meteohub,2013-10-08 02:52:00,
2013-10-07 19:57:00,53.2,36.5,29.93,South,176,2.0,8.0,53,0.00,,,0.00,meteohub,2013-10-08 02:57:00,
2013-10-07 20:02:00,53.4,36.7,29.93,South,176,4.0,8.0,53,0.00,,,0.00,meteohub,2013-10-08 03:02:00,
2013-10-07 20:07:00,53.4,35.8,29.93,SE,140,10.0,10.0,51,0.00,,,0.00,meteohub,2013-10-08 03:07:00,
2013-10-07 20:12:00,54.0,35.8,29.93,ESE,107,6.0,12.0,50,0.00,,,0.00,meteohub,2013-10-08 03:12:00,
2013-10-07 20:17:00,54.1,35.4,29.92,SSE,155,4.0,13.0,49,0.00,,,0.00,meteohub,2013-10-08 03:17:00,
2013-10-07 20:22:00,54.1,34.9,29.93,SSW,192,1.0,14.0,48,0.00,,,0.00,meteohub,2013-10-08 03:22:00,
2013-10-07 20:27:00,54.0,34.2,29.93,ESE,116,2.0,14.0,47,0.00,,,0.00,meteohub,2013-10-08 03:27:00,
2013-10-07 20:32:00,54.0,31.5,29.93,ENE,75,5.0,13.0,42,0.00,,,0.00,meteohub,2013-10-08 03:32:00,
2013-10-07 20:37:00,54.1,29.7,29.93,SSE,158,4.0,10.0,39,0.00,,,0.00,meteohub,2013-10-08 03:37:00,
2013-10-07 20:42:00,54.1,30.9,29.93,SSE,166,4.0,14.0,41,0.00,,,0.00,meteohub,2013-10-08 03:42:00,
2013-10-07 20:47:00,54.0,27.7,29.93,SSE,163,5.0,14.0,36,0.00,,,0.00,meteohub,2013-10-08 03:47:00,
2013-10-07 20:52:00,54.0,24.8,29.93,SW,218,4.0,14.0,32,0.00,,,0.00,meteohub,2013-10-08 03:52:00,
2013-10-07 20:57:00,54.0,19.8,29.93,SE,132,2.0,13.0,26,0.00,,,0.00,meteohub,2013-10-08 03:57:00,
2013-10-07 21:02:00,54.1,19.0,29.93,ESE,114,7.0,13.0,25,0.00,,,0.00,meteohub,2013-10-08 04:02:00,
2013-10-07 21:07:00,54.3,18.3,29.93,SE,132,4.0,13.0,24,0.00,,,0.00,meteohub,2013-10-08 04:07:00,
2013-10-07 21:12:00,54.5,17.4,29.93,South,174,6.0,13.0,23,0.00,,,0.00,meteohub,2013-10-08 04:12:00,
2013-10-07 21:17:00,54.5,16.3,29.93,SE,132,2.0,13.0,22,0.00,,,0.00,meteohub,2013-10-08 04:17:00,
2013-10-07 21:22:00,54.7,13.3,29.93,SSE,156,4.0,13.0,19,0.00,,,0.00,meteohub,2013-10-08 04:22:00,
2013-10-07 21:27:00,54.5,15.3,29.93,SSE,165,5.0,12.0,21,0.00,,,0.00,meteohub,2013-10-08 04:27:00,
2013-10-07 21:32:00,54.3,15.3,29.94,ESE,115,4.0,12.0,21,0.00,,,0.00,meteohub,2013-10-08 04:32:00,
2013-10-07 21:37:00,54.3,11.7,29.94,NW,313,2.0,13.0,18,0.00,,,0.00,meteohub,2013-10-08 04:37:00,
2013-10-07 21:42:00,54.3,12.9,29.94,East,80,3.0,13.0,19,0.00,,,0.00,meteohub,2013-10-08 04:42:00,
2013-10-07 21:47:00,54.1,11.5,29.94,ESE,108,3.0,10.0,18,0.00,,,0.00,meteohub,2013-10-08 04:47:00,
2013-10-07 21:52:00,54.0,10.0,29.94,SSE,165,1.0,10.0,17,0.00,,,0.00,meteohub,2013-10-08 04:52:00,
2013-10-07 21:57:00,54.0,10.0,29.94,SE,136,5.0,11.0,17,0.00,,,0.00,meteohub,2013-10-08 04:57:00,
2013-10-07 22:02:00,53.8,10.0,29.94,SSE,168,4.0,11.0,17,0.00,,,0.00,meteohub,2013-10-08 05:02:00,
2013-10-07 22:07:00,53.8,10.0,29.94,South,185,2.0,11.0,17,0.00,,,0.00,meteohub,2013-10-08 05:07:00,
2013-10-07 22:12:00,53.8,10.0,29.94,ESE,113,2.0,12.0,17,0.00,,,0.00,meteohub,2013-10-08 05:12:00,
2013-10-07 22:17:00,53.8,10.0,29.94,South,190,2.0,12.0,17,0.00,,,0.00,meteohub,2013-10-08 05:17:00,
2013-10-07 22:22:00,53.8,10.0,29.94,ESE,110,3.0,12.0,17,0.00,,,0.00,meteohub,2013-10-08 05:22:00,
2013-10-07 22:27:00,54.0,10.0,29.94,East,89,4.0,9.0,17,0.00,,,0.00,meteohub,2013-10-08 05:27:00,
2013-10-07 22:32:00,54.1,10.2,29.94,SSE,165,3.0,9.0,17,0.00,,,0.00,meteohub,2013-10-08 05:32:00,
2013-10-07 22:37:00,54.1,9.0,29.94,ESE,104,2.0,9.0,16,0.00,,,0.00,meteohub,2013-10-08 05:37:00,
2013-10-07 22:42:00,54.1,9.0,29.94,SE,129,4.0,9.0,16,0.00,,,0.00,meteohub,2013-10-08 05:42:00,
2013-10-07 22:47:00,54.1,9.0,29.94,SE,141,3.0,10.0,16,0.00,,,0.00,meteohub,2013-10-08 05:47:00,
2013-10-07 22:52:00,54.1,10.2,29.94,SSE,162,2.0,10.0,17,0.00,,,0.00,meteohub,2013-10-08 05:52:00,
2013-10-07 22:57:00,54.1,9.0,29.94,SSE,153,2.0,10.0,16,0.00,,,0.00,meteohub,2013-10-08 05:57:00,
2013-10-07 23:02:00,54.1,9.0,29.94,SE,141,5.0,10.0,16,0.00,,,0.00,meteohub,2013-10-08 06:02:00,
2013-10-07 23:07:00,54.0,8.8,29.94,SSE,150,3.0,10.0,16,0.00,,,0.00,meteohub,2013-10-08 06:07:00,
2013-10-07 23:12:00,54.0,8.8,29.94,SE,131,3.0,10.0,16,0.00,,,0.00,meteohub,2013-10-08 06:12:00,
2013-10-07 23:17:00,54.1,7.5,29.94,SW,218,2.0,8.0,15,0.00,,,0.00,meteohub,2013-10-08 06:17:00,
2013-10-07 23:22:00,54.1,7.5,29.94,ESE,123,3.0,9.0,15,0.00,,,0.00,meteohub,2013-10-08 06:22:00,
2013-10-07 23:27:00,54.1,7.5,29.94,East,91,4.0,10.0,15,0.00,,,0.00,meteohub,2013-10-08 06:27:00,
2013-10-07 23:32:00,54.1,7.5,29.94,SSE,155,5.0,10.0,15,0.00,,,0.00,meteohub,2013-10-08 06:32:00,
2013-10-07 23:37:00,54.1,7.5,29.94,East,99,4.0,10.0,15,0.00,,,0.00,meteohub,2013-10-08 06:37:00,
2013-10-07 23:42:00,54.1,9.0,29.94,SW,233,5.0,11.0,16,0.00,,,0.00,meteohub,2013-10-08 06:42:00,
2013-10-07 23:47:00,54.1,10.2,29.94,SSE,153,5.0,13.0,17,0.00,,,0.00,meteohub,2013-10-08 06:47:00,
2013-10-07 23:52:00,54.1,11.5,29.94,ESE,104,7.0,13.0,18,0.00,,,0.00,meteohub,2013-10-08 06:52:00,
2013-10-07 23:57:00,54.0,11.5,29.94,East,79,4.0,12.0,18,0.00,,,0.00,meteohub,2013-10-08 06:57:00,